Time,TemperatureF,DewpointF,PressureIn,WindDirection,WindDirectionDegrees,WindSpeedMPH,WindSpeedGustMPH,Humidity,HourlyPrecipIn,Conditions,Clouds,dailyrainin,SolarRadiationWatts/m^2,SoftwareType,DateUTC
2013-12-21 00:12:00,16.0,12.0,-100.00,WSW,258,4.0,5.0,84,0.00,,,0.00,1.000000,,2013-12-21 06:12:00,
2013-12-21 00:22:00,16.0,12.0,-100.00,WSW,258,4.0,5.0,84,0.00,,,0.00,1.000000,,2013-12-21 06:22:00,
2013-12-21 00:32:00,16.0,12.0,-100.00,WSW,258,4.0,5.0,84,0.00,,,0.00,1.000000,,2013-12-21 06:32:00,
2013-12-21 00:42:00,16.0,12.0,-100.00,WSW,258,4.0,5.0,84,0.00,,,0.00,1.000000,,2013-12-21 06:42:00,
2013-12-21 01:11:00,15.0,11.0,-100.00,WSW,243,4.0,6.0,84,0.00,,,0.00,1.000000,,2013-12-21 07:11:00,
2013-12-21 01:22:00,15.0,11.0,-100.00,WSW,243,4.0,6.0,84,0.00,,,0.00,1.000000,,2013-12-21 07:22:00,
2013-12-21 01:32:00,15.0,11.0,-100.00,WSW,243,4.0,6.0,84,0.00,,,0.00,1.000000,,2013-12-21 07:32:00,
2013-12-21 01:42:00,15.0,11.0,-100.00,WSW,243,4.0,6.0,84,0.00,,,0.00,1.000000,,2013-12-21 07:42:00,
2013-12-21 02:12:00,15.0,11.0,-100.00,WNW,291,5.0,7.0,83,0.00,,,0.00,1.000000,,2013-12-21 08:12:00,
2013-12-21 02:22:00,15.0,11.0,-100.00,WNW,291,5.0,7.0,83,0.00,,,0.00,1.000000,,2013-12-21 08:22:00,
2013-12-21 02:32:00,15.0,11.0,-100.00,WNW,291,5.0,7.0,83,0.00,,,0.00,1.000000,,2013-12-21 08:32:00,
2013-12-21 02:42:00,15.0,11.0,-100.00,WNW,291,5.0,7.0,83,0.00,,,0.00,1.000000,,2013-12-21 08:42:00,
2013-12-21 03:12:00,15.0,10.0,-100.00,WNW,289,3.0,6.0,81,0.00,,,0.00,1.000000,,2013-12-21 09:12:00,
2013-12-21 03:22:00,15.0,10.0,-100.00,WNW,289,3.0,6.0,81,0.00,,,0.00,1.000000,,2013-12-21 09:22:00,
2013-12-21 03:33:00,15.0,10.0,-100.00,WNW,289,3.0,6.0,81,0.00,,,0.00,1.000000,,2013-12-21 09:33:00,
2013-12-21 03:43:00,15.0,10.0,-100.00,WNW,289,3.0,6.0,81,0.00,,,0.00,1.000000,,2013-12-21 09:43:00,
2013-12-21 04:12:00,15.0,10.0,-100.00,West,280,2.0,6.0,80,0.00,,,0.00,1.000000,,2013-12-21 10:12:00,
2013-12-21 04:23:00,15.0,10.0,-100.00,West,280,2.0,6.0,80,0.00,,,0.00,1.000000,,2013-12-21 10:23:00,
2013-12-21 04:33:00,15.0,10.0,-100.00,West,280,2.0,6.0,80,0.00,,,0.00,1.000000,,2013-12-21 10:33:00,
2013-12-21 04:43:00,15.0,10.0,-100.00,West,280,2.0,6.0,80,0.00,,,0.00,1.000000,,2013-12-21 10:43:00,
2013-12-21 05:12:00,15.0,11.0,-100.00,North,-999,0.0,4.0,82,0.00,,,0.00,1.000000,,2013-12-21 11:12:00,
2013-12-21 05:23:00,15.0,11.0,-100.00,North,-999,0.0,4.0,82,0.00,,,0.00,1.000000,,2013-12-21 11:23:00,
2013-12-21 05:33:00,15.0,11.0,-100.00,North,-999,0.0,4.0,82,0.00,,,0.00,1.000000,,2013-12-21 11:33:00,
2013-12-21 05:42:00,15.0,11.0,-100.00,North,-999,0.0,4.0,82,0.00,,,0.00,1.000000,,2013-12-21 11:42:00,
2013-12-21 06:12:00,15.0,11.0,-100.00,WNW,286,1.0,4.0,82,0.00,,,0.00,1.000000,,2013-12-21 12:12:00,
2013-12-21 06:22:00,15.0,11.0,-100.00,WNW,286,1.0,4.0,82,0.00,,,0.00,1.000000,,2013-12-21 12:22:00,
2013-12-21 06:32:00,15.0,11.0,-100.00,WNW,286,1.0,4.0,82,0.00,,,0.00,1.000000,,2013-12-21 12:32:00,
2013-12-21 06:42:00,15.0,11.0,-100.00,WNW,286,1.0,4.0,82,0.00,,,0.00,1.000000,,2013-12-21 12:42:00,
2013-12-21 07:12:00,16.0,12.0,-100.00,NNW,333,2.0,5.0,83,0.00,,,0.00,1.000000,,2013-12-21 13:12:00,
2013-12-21 07:22:00,16.0,12.0,-100.00,NNW,333,2.0,5.0,83,0.00,,,0.00,1.000000,,2013-12-21 13:22:00,
2013-12-21 07:32:00,16.0,12.0,-100.00,NNW,333,2.0,5.0,83,0.00,,,0.00,1.000000,,2013-12-21 13:32:00,
2013-12-21 07:42:00,16.0,12.0,-100.00,NNW,333,2.0,5.0,83,0.00,,,0.00,1.000000,,2013-12-21 13:42:00,
2013-12-21 08:12:00,16.0,12.0,-100.00,West,267,1.0,6.0,84,0.00,,,0.00,1.000000,,2013-12-21 14:12:00,
2013-12-21 08:22:00,16.0,12.0,-100.00,West,267,1.0,6.0,84,0.00,,,0.00,1.000000,,2013-12-21 14:22:00,
2013-12-21 08:32:00,16.0,12.0,-100.00,West,267,1.0,6.0,84,0.00,,,0.00,1.000000,,2013-12-21 14:32:00,
2013-12-21 08:42:00,16.0,12.0,-100.00,West,267,1.0,6.0,84,0.00,,,0.00,1.000000,,2013-12-21 14:42:00,
2013-12-21 09:12:00,17.0,12.0,-100.00,NNW,337,3.0,6.0,82,0.00,,,0.00,20.000000,,2013-12-21 15:12:00,
2013-12-21 09:22:00,17.0,12.0,-100.00,NNW,337,3.0,6.0,82,0.00,,,0.00,20.000000,,2013-12-21 15:22:00,
2013-12-21 09:33:00,17.0,12.0,-100.00,NNW,337,3.0,6.0,82,0.00,,,0.00,20.000000,,2013-12-21 15:33:00,
2013-12-21 09:43:00,17.0,12.0,-100.00,NNW,337,3.0,6.0,82,0.00,,,0.00,20.000000,,2013-12-21 15:43:00,
2013-12-21 10:13:00,19.0,13.0,-100.00,North,2,5.0,7.0,76,0.00,,,0.00,74.000000,,2013-12-21 16:13:00,
2013-12-21 10:23:00,19.0,13.0,-100.00,North,2,5.0,7.0,76,0.00,,,0.00,74.000000,,2013-12-21 16:23:00,
2013-12-21 10:34:00,19.0,13.0,-100.00,North,2,5.0,7.0,76,0.00,,,0.00,74.000000,,2013-12-21 16:34:00,
2013-12-21 10:43:00,19.0,13.0,-100.00,North,2,5.0,7.0,76,0.00,,,0.00,74.000000,,2013-12-21 16:43:00,
2013-12-21 11:12:00,21.0,14.0,-100.00,North,1,3.0,8.0,75,0.00,,,0.00,112.000000,,2013-12-21 17:12:00,
2013-12-21 11:22:00,21.0,14.0,-100.00,North,1,3.0,8.0,75,0.00,,,0.00,112.000000,,2013-12-21 17:22:00,
2013-12-21 11:33:00,21.0,14.0,-100.00,North,1,3.0,8.0,75,0.00,,,0.00,112.000000,,2013-12-21 17:33:00,
2013-12-21 11:43:00,21.0,14.0,-100.00,North,1,3.0,8.0,75,0.00,,,0.00,112.000000,,2013-12-21 17:43:00,
2013-12-21 12:12:00,21.0,13.0,-100.00,North,351,6.0,9.0,72,0.00,,,0.00,168.000000,,2013-12-21 18:12:00,
2013-12-21 12:23:00,21.0,13.0,-100.00,North,351,6.0,9.0,72,0.00,,,0.00,168.000000,,2013-12-21 18:23:00,
2013-12-21 12:32:00,21.0,13.0,-100.00,North,351,6.0,9.0,72,0.00,,,0.00,168.000000,,2013-12-21 18:32:00,
2013-12-21 12:42:00,21.0,13.0,-100.00,North,351,6.0,9.0,72,0.00,,,0.00,168.000000,,2013-12-21 18:42:00,
2013-12-21 13:11:00,22.0,13.0,-100.00,North,353,3.0,7.0,68,0.00,,,0.00,153.000000,,2013-12-21 19:11:00,
2013-12-21 13:22:00,22.0,13.0,-100.00,North,353,3.0,7.0,68,0.00,,,0.00,153.000000,,2013-12-21 19:22:00,
2013-12-21 13:32:00,22.0,13.0,-100.00,North,353,3.0,7.0,68,0.00,,,0.00,153.000000,,2013-12-21 19:32:00,
2013-12-21 13:42:00,22.0,13.0,-100.00,North,353,3.0,7.0,68,0.00,,,0.00,153.000000,,2013-12-21 19:42:00,
2013-12-21 14:12:00,22.0,13.0,-100.00,North,359,4.0,8.0,68,0.00,,,0.00,114.000000,,2013-12-21 20:12:00,
2013-12-21 14:23:00,22.0,13.0,-100.00,North,359,4.0,8.0,68,0.00,,,0.00,114.000000,,2013-12-21 20:23:00,
2013-12-21 14:32:00,22.0,13.0,-100.00,North,359,4.0,8.0,68,0.00,,,0.00,114.000000,,2013-12-21 20:32:00,
2013-12-21 14:42:00,22.0,13.0,-100.00,North,359,4.0,8.0,68,0.00,,,0.00,114.000000,,2013-12-21 20:42:00,
2013-12-21 15:22:00,22.0,14.0,-100.00,North,354,4.0,7.0,70,0.00,,,-99.99,76.000000,,2013-12-21 21:22:00,
2013-12-21 15:33:00,22.0,14.0,-100.00,North,354,4.0,7.0,70,0.00,,,-99.99,76.000000,,2013-12-21 21:33:00,
2013-12-21 15:43:00,22.0,14.0,-100.00,North,354,4.0,7.0,70,0.00,,,-99.99,76.000000,,2013-12-21 21:43:00,
2013-12-21 16:13:00,21.0,13.0,-100.00,NNW,345,6.0,10.0,72,0.00,,,0.00,41.000000,,2013-12-21 22:13:00,
2013-12-21 16:23:00,21.0,13.0,-100.00,NNW,345,6.0,10.0,72,0.00,,,0.00,41.000000,,2013-12-21 22:23:00,
2013-12-21 16:33:00,21.0,13.0,-100.00,NNW,345,6.0,10.0,72,0.00,,,0.00,41.000000,,2013-12-21 22:33:00,
2013-12-21 16:42:00,21.0,13.0,-100.00,NNW,345,6.0,10.0,72,0.00,,,0.00,41.000000,,2013-12-21 22:42:00,
2013-12-21 17:12:00,20.0,14.0,-100.00,North,1,7.0,10.0,76,0.00,,,0.00,10.000000,,2013-12-21 23:12:00,
2013-12-21 17:22:00,20.0,14.0,-100.00,North,1,7.0,10.0,76,0.00,,,0.00,10.000000,,2013-12-21 23:22:00,
2013-12-21 17:33:00,20.0,14.0,-100.00,North,1,7.0,10.0,76,0.00,,,0.00,10.000000,,2013-12-21 23:33:00,
2013-12-21 17:43:00,20.0,14.0,-100.00,North,1,7.0,10.0,76,0.00,,,0.00,10.000000,,2013-12-21 23:43:00,
2013-12-21 18:12:00,20.0,14.0,-100.00,North,359,8.0,12.0,77,0.00,,,0.00,1.000000,,2013-12-22 00:12:00,
2013-12-21 18:22:00,20.0,14.0,-100.00,North,359,8.0,12.0,77,0.00,,,0.00,1.000000,,2013-12-22 00:22:00,
2013-12-21 18:32:00,20.0,14.0,-100.00,North,359,8.0,12.0,77,0.00,,,0.00,1.000000,,2013-12-22 00:32:00,
2013-12-21 18:42:00,20.0,14.0,-100.00,North,359,8.0,12.0,77,0.00,,,0.00,1.000000,,2013-12-22 00:42:00,
2013-12-21 19:12:00,20.0,15.0,-100.00,North,358,6.0,9.0,80,0.00,,,0.00,1.000000,,2013-12-22 01:12:00,
2013-12-21 19:22:00,20.0,15.0,-100.00,North,358,6.0,9.0,80,0.00,,,0.00,1.000000,,2013-12-22 01:22:00,
2013-12-21 19:32:00,20.0,15.0,-100.00,North,358,6.0,9.0,80,0.00,,,0.00,1.000000,,2013-12-22 01:32:00,
2013-12-21 19:42:00,20.0,15.0,-100.00,North,358,6.0,9.0,80,0.00,,,0.00,1.000000,,2013-12-22 01:42:00,
2013-12-21 20:12:00,20.0,15.0,-100.00,North,359,6.0,10.0,81,0.00,,,-99.99,1.000000,,2013-12-22 02:12:00,
2013-12-21 20:22:00,20.0,15.0,-100.00,North,359,6.0,10.0,81,0.00,,,-99.99,1.000000,,2013-12-22 02:22:00,
2013-12-21 20:32:00,20.0,15.0,-100.00,North,359,6.0,10.0,81,0.00,,,-99.99,1.000000,,2013-12-22 02:32:00,
2013-12-21 20:42:00,20.0,15.0,-100.00,North,359,6.0,10.0,81,0.00,,,-99.99,1.000000,,2013-12-22 02:42:00,
2013-12-21 21:11:00,19.0,15.0,-100.00,North,358,8.0,12.0,83,0.00,,,0.00,1.000000,,2013-12-22 03:11:00,
2013-12-21 21:22:00,19.0,15.0,-100.00,North,358,8.0,12.0,83,0.00,,,0.00,1.000000,,2013-12-22 03:22:00,
2013-12-21 21:33:00,19.0,15.0,-100.00,North,358,8.0,12.0,83,0.00,,,0.00,1.000000,,2013-12-22 03:33:00,
2013-12-21 21:43:00,19.0,15.0,-100.00,North,358,8.0,12.0,83,0.00,,,0.00,1.000000,,2013-12-22 03:43:00,
2013-12-21 22:02:00,-999.0,-99.9,-100.00,North,0,5.0,12.0,-999,0.00,,,-99.99,1.000000,,2013-12-22 04:02:00,
2013-12-21 22:13:00,19.0,15.0,-100.00,North,0,5.0,12.0,83,0.00,,,0.00,1.000000,,2013-12-22 04:13:00,
2013-12-21 22:23:00,19.0,15.0,-100.00,North,0,5.0,12.0,83,0.00,,,0.00,1.000000,,2013-12-22 04:23:00,
2013-12-21 22:34:00,19.0,15.0,-100.00,North,0,5.0,12.0,83,0.00,,,0.00,1.000000,,2013-12-22 04:34:00,
2013-12-21 22:43:00,19.0,15.0,-100.00,North,0,5.0,12.0,83,0.00,,,0.00,1.000000,,2013-12-22 04:43:00,
2013-12-21 23:12:00,19.0,14.0,-100.00,North,359,6.0,12.0,81,0.00,,,0.00,1.000000,,2013-12-22 05:12:00,
2013-12-21 23:22:00,19.0,14.0,-100.00,North,359,6.0,12.0,81,0.00,,,0.00,1.000000,,2013-12-22 05:22:00,
2013-12-21 23:32:00,19.0,14.0,-100.00,North,359,6.0,12.0,81,0.00,,,0.00,1.000000,,2013-12-22 05:32:00,
2013-12-21 23:43:00,19.0,14.0,-100.00,North,359,6.0,12.0,81,0.00,,,0.00,1.000000,,2013-12-22 05:43:00,